Location: Munderkingen
(48.2395°N, 9.6433°E)
Time: 16:54:21
(UTC+02:00)

ISS - Pass Details

Date: 30 March 2017
Orbit: 401 x 409 km, 51.6° (Epoch: 28 April)

Event Time Altitude Azimuth Distance (km) Brightness Sun altitude
Rises 22:14:18 0° 263° (W) 2,320 0.7 -23.1°
Reaches altitude 10° 22:16:24 10° 268° (W) 1,463 -0.4 -23.4°
Enters shadow 22:18:43 38° 292° (WNW) 632 -2.4 -23.7°
